START_TIME,STEP,MOV.,A46,t_acc.,A13,t_acc.,M47,t_acc.,A17,t_acc.,A28,t_acc.,M38,t_acc.
1979-07-27 21:00:24.730 ,0,0,,0,5.,4.8,0.,4.8,,0,0.,4.8,7.,4.8
1979-07-27 21:00:29.530 ,0,0,,0,12.,4.8,2.,4.8,,0,0.,4.8,4.,4.8
1979-07-27 21:00:34.330 ,0,0,,0,8.,4.8,0.,4.8,,0,0.,4.8,4.,4.8
1979-07-27 21:00:39.130 ,0,0,,0,0.,4.8,0.,4.8,,0,0.,4.8,4.,4.8
1979-07-27 21:00:43.930 ,0,0,,0,0.,4.8,0.,4.8,,0,0.,4.8,4.,4.8
1979-07-27 21:00:48.730 ,0,0,,0,0.,4.8,0.,4.8,,0,0.,4.8,3.,4.8
1979-07-27 21:00:53.530 ,0,0,,0,0.,4.8,0.,4.8,,0,1.,4.8,3.,4.8
1979-07-27 21:00:58.330 ,0,0,,0,1.,4.8,0.,4.8,,0,0.,4.8,3.,4.8
1979-07-27 21:01:03.130 ,0,0,,0,7.,4.8,1.,4.8,,0,0.,4.8,0.,4.8
1979-07-27 21:01:07.930 ,0,0,,0,4.,4.8,0.,4.8,,0,0.,4.8,0.,4.8
1979-07-27 21:01:12.730 ,0,0,,0,7.,4.8,0.,4.8,,0,0.,4.8,5.,4.8
1979-07-27 21:01:17.530 ,0,0,,0,7.,4.8,0.,4.8,,0,0.,4.8,1.,4.8
1979-07-27 21:01:22.330 ,0,0,,0,3.,4.8,0.,4.8,,0,0.,4.8,4.,4.8
1979-07-27 21:01:27.130 ,0,0,,0,0.,4.8,0.,4.8,,0,0.,4.8,2.,4.8
1979-07-27 21:01:31.930 ,0,0,,0,0.,4.8,0.,4.8,,0,0.,4.8,3.,4.8
1979-07-27 21:01:36.730 ,1,0,,0,0.,4.8,0.,4.8,,0,0.,4.8,4.,4.8
1979-07-27 21:01:41.530 ,1,0,,0,0.,4.8,0.,4.8,,0,0.,4.8,0.,4.8
1979-07-27 21:01:46.330 ,1,0,,0,3.,4.8,0.,4.8,,0,0.,4.8,5.,4.8
1979-07-27 21:01:51.130 ,1,0,,0,7.,4.8,0.,4.8,,0,0.,4.8,2.,4.8
1979-07-27 21:01:55.930 ,1,0,,0,10.,4.8,2.,4.8,,0,0.,4.8,6.,4.8
1979-07-27 21:02:00.730 ,1,0,,0,9.,4.8,1.,4.8,,0,0.,4.8,2.,4.8
1979-07-27 21:02:05.530 ,1,0,,0,12.,4.8,1.,4.8,,0,0.,4.8,1.,4.8
1979-07-27 21:02:10.330 ,1,0,,0,6.,4.8,0.,4.8,,0,0.,4.8,3.,4.8
1979-07-27 21:02:15.130 ,1,0,,0,0.,4.8,0.,4.8,,0,0.,4.8,5.,4.8
1979-07-27 21:02:19.930 ,1,0,,0,0.,4.8,0.,4.8,,0,0.,4.8,4.,4.8
1979-07-27 21:02:24.730 ,2,0,,0,0.,4.8,0.,4.8,,0,0.,4.8,3.,4.8
1979-07-27 21:02:29.530 ,2,0,,0,0.,4.8,0.,4.8,,0,0.,4.8,5.,4.8
1979-07-27 21:02:34.330 ,2,0,,0,3.,4.8,0.,4.8,,0,0.,4.8,5.,4.8
1979-07-27 21:02:39.130 ,2,0,,0,8.,4.8,0.,4.8,,0,0.,4.8,6.,4.8
1979-07-27 21:02:43.930 ,2,0,,0,15.,4.8,1.,4.8,,0,0.,4.8,0.,4.8
1979-07-27 21:02:48.730 ,2,0,,0,11.,4.8,1.,4.8,,0,0.,4.8,6.,4.8
1979-07-27 21:02:53.530 ,2,0,,0,21.,4.8,1.,4.8,,0,0.,4.8,2.,4.8
1979-07-27 21:02:58.330 ,2,0,,0,9.,4.8,1.,4.8,,0,0.,4.8,2.,4.8
1979-07-27 21:03:03.130 ,2,0,,0,0.,4.8,0.,4.8,,0,0.,4.8,4.,4.8
1979-07-27 21:03:07.930 ,2,0,,0,0.,4.8,0.,4.8,,0,0.,4.8,0.,4.8
1979-07-27 21:03:12.730 ,3,0,,0,0.,4.8,0.,4.8,,0,0.,4.8,7.,4.8
1979-07-27 21:03:17.530 ,3,0,,0,0.,4.8,0.,4.8,,0,0.,4.8,12.,4.8
1979-07-27 21:03:22.330 ,3,0,,0,6.,4.8,0.,4.8,,0,0.,4.8,6.,4.8
1979-07-27 21:03:27.130 ,3,0,,0,22.,4.8,1.,4.8,,0,0.,4.8,7.,4.8
1979-07-27 21:03:31.930 ,3,0,,0,32.,4.8,3.,4.8,,0,0.,4.8,8.,4.8
1979-07-27 21:03:36.730 ,3,0,,0,22.,4.8,1.,4.8,,0,0.,4.8,12.,4.8
1979-07-27 21:03:41.530 ,3,0,,0,30.,4.8,3.,4.8,,0,0.,4.8,10.,4.8
1979-07-27 21:03:46.330 ,3,0,,0,13.,4.8,2.,4.8,,0,0.,4.8,11.,4.8
1979-07-27 21:03:51.130 ,3,0,,0,0.,4.8,0.,4.8,,0,0.,4.8,6.,4.8
1979-07-27 21:03:55.930 ,3,0,,0,0.,4.8,0.,4.8,,0,0.,4.8,16.,4.8
1979-07-27 21:04:00.730 ,4,0,,0,0.,4.8,0.,4.8,,0,0.,4.8,6.,4.8
1979-07-27 21:04:05.530 ,4,0,,0,0.,4.8,0.,4.8,,0,0.,4.8,11.,4.8
1979-07-27 21:04:10.330 ,4,0,,0,4.,4.8,0.,4.8,,0,0.,4.8,10.,4.8
1979-07-27 21:04:15.130 ,4,0,,0,22.,4.8,2.,4.8,,0,0.,4.8,9.,4.8
1979-07-27 21:04:19.930 ,4,0,,0,28.,4.8,1.,4.8,,0,0.,4.8,12.,4.8
1979-07-27 21:04:24.730 ,4,0,,0,25.,4.8,3.,4.8,,0,0.,4.8,17.,4.8
1979-07-27 21:04:29.530 ,4,0,,0,30.,4.8,2.,4.8,,0,0.,4.8,12.,4.8
1979-07-27 21:04:34.330 ,4,0,,0,23.,4.8,2.,4.8,,0,0.,4.8,9.,4.8
1979-07-27 21:04:39.130 ,4,0,,0,0.,4.8,0.,4.8,,0,0.,4.8,7.,4.8
1979-07-27 21:04:43.930 ,4,0,,0,0.,4.8,0.,4.8,,0,0.,4.8,9.,4.8
1979-07-27 21:04:48.730 ,5,0,,0,0.,4.8,1.,4.8,,0,0.,4.8,11.,4.8
1979-07-27 21:04:53.530 ,5,0,,0,0.,4.8,0.,4.8,,0,0.,4.8,11.,4.8
1979-07-27 21:04:58.330 ,5,0,,0,4.,4.8,0.,4.8,,0,0.,4.8,11.,4.8
1979-07-27 21:05:03.130 ,5,0,,0,21.,4.8,1.,4.8,,0,0.,4.8,14.,4.8
1979-07-27 21:05:07.930 ,5,0,,0,32.,4.8,3.,4.8,,0,0.,4.8,9.,4.8
1979-07-27 21:05:12.730 ,5,0,,0,25.,4.8,1.,4.8,,0,0.,4.8,12.,4.8
1979-07-27 21:05:17.530 ,5,0,,0,31.,4.8,2.,4.8,,0,0.,4.8,9.,4.8
1979-07-27 21:05:22.330 ,5,0,,0,22.,4.8,1.,4.8,,0,0.,4.8,14.,4.8
1979-07-27 21:05:27.130 ,5,0,,0,0.,4.8,0.,4.8,,0,0.,4.8,11.,4.8
1979-07-27 21:05:31.930 ,5,0,,0,0.,4.8,0.,4.8,,0,0.,4.8,9.,4.8
1979-07-27 21:05:36.730 ,6,0,,0,0.,4.8,0.,4.8,,0,0.,4.8,11.,4.8
1979-07-27 21:05:41.530 ,6,0,,0,0.,4.8,0.,4.8,,0,0.,4.8,14.,4.8
1979-07-27 21:05:46.330 ,6,0,,0,3.,4.8,0.,4.8,,0,0.,4.8,6.,4.8
1979-07-27 21:05:51.130 ,6,0,,0,15.,4.8,2.,4.8,,0,0.,4.8,4.,4.8
1979-07-27 21:05:55.930 ,6,0,,0,20.,4.8,0.,4.8,,0,0.,4.8,9.,4.8
1979-07-27 21:06:00.730 ,6,0,,0,10.,4.8,0.,4.8,,0,0.,4.8,4.,4.8
1979-07-27 21:06:05.530 ,6,0,,0,14.,4.8,2.,4.8,,0,0.,4.8,4.,4.8
1979-07-27 21:06:10.330 ,6,0,,0,16.,4.8,1.,4.8,,0,0.,4.8,7.,4.8
1979-07-27 21:06:15.130 ,6,0,,0,0.,4.8,0.,4.8,,0,0.,4.8,11.,4.8
1979-07-27 21:06:19.930 ,6,0,,0,0.,4.8,0.,4.8,,0,0.,4.8,4.,4.8
1979-07-27 21:06:24.730 ,7,0,,0,0.,4.8,0.,4.8,,0,0.,4.8,11.,4.8
1979-07-27 21:06:29.530 ,7,0,,0,0.,4.8,0.,4.8,,0,0.,4.8,7.,4.8
1979-07-27 21:06:34.330 ,7,0,,0,1.,4.8,0.,4.8,,0,0.,4.8,0.,4.8
1979-07-27 21:06:39.130 ,7,0,,0,11.,4.8,0.,4.8,,0,0.,4.8,0.,4.8
1979-07-27 21:06:43.930 ,7,0,,0,11.,4.8,0.,4.8,,0,0.,4.8,0.,4.8
1979-07-27 21:06:48.730 ,7,0,,0,12.,4.8,0.,4.8,,0,0.,4.8,0.,4.8
1979-07-27 21:06:53.530 ,7,0,,0,9.,4.8,0.,4.8,,0,0.,4.8,0.,4.8
1979-07-27 21:06:58.330 ,7,0,,0,14.,4.8,0.,4.8,,0,0.,4.8,0.,4.8
1979-07-27 21:07:03.130 ,7,0,,0,0.,4.8,0.,4.8,,0,0.,4.8,0.,4.8
1979-07-27 21:07:07.930 ,7,0,,0,0.,4.8,0.,4.8,,0,0.,4.8,0.,4.8
1979-07-27 21:07:12.730 ,3,1,,0,0.,4.8,0.,4.8,,0,0.,4.8,3.,4.8
1979-07-27 21:07:17.530 ,3,1,,0,0.,4.8,0.,4.8,,0,0.,4.8,4.,4.8
1979-07-27 21:07:22.330 ,3,1,,0,4.,4.8,2.,4.8,,0,0.,4.8,12.,4.8
1979-07-27 21:07:27.130 ,3,1,,0,35.,4.8,1.,4.8,,0,0.,4.8,12.,4.8
1979-07-27 21:07:31.930 ,3,1,,0,29.,4.8,4.,4.8,,0,0.,4.8,13.,4.8
1979-07-27 21:07:36.730 ,0,1,,0,17.,4.8,1.,4.8,,0,0.,4.8,9.,4.8
1979-07-27 21:07:41.530 ,0,1,,0,16.,4.8,1.,4.8,,0,0.,4.8,3.,4.8
1979-07-27 21:07:46.330 ,0,1,,0,6.,4.8,0.,4.8,,0,0.,4.8,3.,4.8
1979-07-27 21:07:51.130 ,0,1,,0,0.,4.8,0.,4.8,,0,0.,4.8,3.,4.8
1979-07-27 21:07:55.930 ,0,1,,0,0.,4.8,0.,4.8,,0,0.,4.8,3.,4.8
1979-07-27 21:08:00.730 ,4,1,,0,0.,4.8,0.,4.8,,0,0.,4.8,6.,4.8
1979-07-27 21:08:05.530 ,4,1,,0,0.,4.8,0.,4.8,,0,0.,4.8,6.,4.8
1979-07-27 21:08:10.330 ,4,1,,0,2.,4.8,0.,4.8,,0,0.,4.8,10.,4.8
1979-07-27 21:08:15.130 ,4,1,,0,25.,4.8,2.,4.8,,0,0.,4.8,6.,4.8
1979-07-27 21:08:19.930 ,4,1,,0,26.,4.8,3.,4.8,,0,1.,4.8,8.,4.8
1979-07-27 21:08:24.730 ,7,1,,0,23.,4.8,2.,4.8,,0,0.,4.8,9.,4.8
1979-07-27 21:08:29.530 ,7,1,,0,24.,4.8,1.,4.8,,0,0.,4.8,7.,4.8
1979-07-27 21:08:34.330 ,7,1,,0,20.,4.8,2.,4.8,,0,0.,4.8,9.,4.8
1979-07-27 21:08:39.130 ,7,1,,0,0.,4.8,0.,4.8,,0,0.,4.8,0.,4.8
1979-07-27 21:08:43.930 ,7,1,,0,0.,4.8,0.,4.8,,0,0.,4.8,0.,4.8
1979-07-27 21:08:48.730 ,3,1,,0,0.,4.8,0.,4.8,,0,0.,4.8,2.,4.8
1979-07-27 21:08:53.530 ,3,1,,0,0.,4.8,0.,4.8,,0,0.,4.8,15.,4.8
1979-07-27 21:08:58.330 ,3,1,,0,9.,4.8,3.,4.8,,0,0.,4.8,7.,4.8
1979-07-27 21:09:03.130 ,3,1,,0,39.,4.8,2.,4.8,,0,0.,4.8,18.,4.8
1979-07-27 21:09:07.930 ,3,1,,0,22.,4.8,1.,4.8,,0,0.,4.8,7.,4.8
1979-07-27 21:09:12.730 ,0,1,,0,15.,4.8,1.,4.8,,0,0.,4.8,9.,4.8
1979-07-27 21:09:17.530 ,0,1,,0,16.,4.8,1.,4.8,,0,0.,4.8,6.,4.8
1979-07-27 21:09:22.330 ,0,1,,0,10.,4.8,2.,4.8,,0,0.,4.8,2.,4.8
1979-07-27 21:09:27.130 ,0,1,,0,0.,4.8,0.,4.8,,0,0.,4.8,3.,4.8
1979-07-27 21:09:31.930 ,0,1,,0,0.,4.8,0.,4.8,,0,0.,4.8,3.,4.8
1979-07-27 21:09:36.730 ,4,1,,0,0.,4.8,1.,4.8,,0,0.,4.8,2.,4.8
1979-07-27 21:09:41.530 ,4,1,,0,0.,4.8,0.,4.8,,0,0.,4.8,5.,4.8
1979-07-27 21:09:46.330 ,4,1,,0,3.,4.8,0.,4.8,,0,0.,4.8,7.,4.8
1979-07-27 21:09:51.130 ,4,1,,0,26.,4.8,0.,4.8,,0,0.,4.8,6.,4.8
1979-07-27 21:09:55.930 ,4,1,,0,25.,4.8,2.,4.8,,0,0.,4.8,12.,4.8
1979-07-27 21:10:00.730 ,7,1,,0,29.,4.8,2.,4.8,,0,0.,4.8,9.,4.8
1979-07-27 21:10:05.530 ,7,1,,0,29.,4.8,2.,4.8,,0,0.,4.8,9.,4.8
1979-07-27 21:10:10.330 ,7,1,,0,17.,4.8,1.,4.8,,0,0.,4.8,7.,4.8
1979-07-27 21:10:15.130 ,7,1,,0,0.,4.8,0.,4.8,,0,0.,4.8,0.,4.8
1979-07-27 21:10:19.930 ,7,1,,0,0.,4.8,0.,4.8,,0,0.,4.8,0.,4.8
1979-07-27 21:10:24.730 ,3,1,,0,0.,4.8,0.,4.8,,0,0.,4.8,2.,4.8
1979-07-27 21:10:29.530 ,3,1,,0,0.,4.8,0.,4.8,,0,0.,4.8,8.,4.8
1979-07-27 21:10:34.330 ,3,1,,0,5.,4.8,1.,4.8,,0,0.,4.8,11.,4.8
1979-07-27 21:10:39.130 ,3,1,,0,18.,4.8,2.,4.8,,0,0.,4.8,13.,4.8
1979-07-27 21:10:43.930 ,3,1,,0,23.,4.8,0.,4.8,,0,0.,4.8,7.,4.8
1979-07-27 21:10:48.730 ,0,1,,0,19.,4.8,0.,4.8,,0,0.,4.8,9.,4.8
1979-07-27 21:10:53.530 ,0,1,,0,13.,4.8,1.,4.8,,0,0.,4.8,2.,4.8
1979-07-27 21:10:58.330 ,0,1,,0,9.,4.8,2.,4.8,,0,0.,4.8,5.,4.8
1979-07-27 21:11:03.130 ,0,1,,0,0.,4.8,0.,4.8,,0,0.,4.8,6.,4.8
1979-07-27 21:11:07.930 ,0,1,,0,0.,4.8,0.,4.8,,0,0.,4.8,4.,4.8
1979-07-27 21:11:12.730 ,4,1,,0,0.,4.8,0.,4.8,,0,0.,4.8,3.,4.8
1979-07-27 21:11:17.530 ,4,1,,0,0.,4.8,0.,4.8,,0,0.,4.8,5.,4.8
1979-07-27 21:11:22.330 ,4,1,,0,5.,4.8,0.,4.8,,0,0.,4.8,2.,4.8
1979-07-27 21:11:27.130 ,4,1,,0,31.,4.8,1.,4.8,,0,0.,4.8,12.,4.8
1979-07-27 21:11:31.930 ,4,1,,0,36.,4.8,2.,4.8,,0,0.,4.8,9.,4.8
1979-07-27 21:11:36.730 ,7,1,,0,27.,4.8,1.,4.8,,0,0.,4.8,11.,4.8
1979-07-27 21:11:41.530 ,7,1,,0,17.,4.8,0.,4.8,,0,0.,4.8,7.,4.8
1979-07-27 21:11:46.330 ,7,1,,0,17.,4.8,1.,4.8,,0,0.,4.8,7.,4.8
1979-07-27 21:11:51.130 ,7,1,,0,0.,4.8,0.,4.8,,0,0.,4.8,0.,4.8
1979-07-27 21:11:55.930 ,7,1,,0,0.,4.8,0.,4.8,,0,0.,4.8,0.,4.8
1979-07-27 21:12:00.730 ,3,1,,0,0.,4.8,0.,4.8,,0,0.,4.8,7.,4.8
1979-07-27 21:12:05.530 ,3,1,,0,0.,4.8,0.,4.8,,0,0.,4.8,4.,4.8
1979-07-27 21:12:10.330 ,3,1,,0,6.,4.8,1.,4.8,,0,0.,4.8,9.,4.8
1979-07-27 21:12:15.130 ,3,1,,0,22.,4.8,0.,4.8,,0,0.,4.8,15.,4.8
1979-07-27 21:12:19.930 ,3,1,,0,27.,4.8,3.,4.8,,0,0.,4.8,9.,4.8
1979-07-27 21:12:24.730 ,0,1,,0,16.,4.8,1.,4.8,,0,0.,4.8,6.,4.8
1979-07-27 21:12:29.530 ,0,1,,0,12.,4.8,0.,4.8,,0,0.,4.8,5.,4.8
1979-07-27 21:12:34.330 ,0,1,,0,6.,4.8,0.,4.8,,0,0.,4.8,3.,4.8
1979-07-27 21:12:39.130 ,0,1,,0,0.,4.8,0.,4.8,,0,0.,4.8,1.,4.8
1979-07-27 21:12:43.930 ,0,1,,0,0.,4.8,0.,4.8,,0,0.,4.8,6.,4.8
1979-07-27 21:12:48.730 ,4,1,,0,0.,4.8,0.,4.8,,0,0.,4.8,3.,4.8
1979-07-27 21:12:53.530 ,4,1,,0,0.,4.8,0.,4.8,,0,0.,4.8,2.,4.8
1979-07-27 21:12:58.330 ,4,1,,0,3.,4.8,0.,4.8,,0,0.,4.8,6.,4.8
1979-07-27 21:13:03.130 ,4,1,,0,32.,4.8,1.,4.8,,0,0.,4.8,7.,4.8
1979-07-27 21:13:07.930 ,4,1,,0,26.,4.8,0.,4.8,,0,0.,4.8,12.,4.8
1979-07-27 21:13:12.730 ,7,1,,0,32.,4.8,4.,4.8,,0,0.,4.8,8.,4.8
1979-07-27 21:13:17.530 ,7,1,,0,23.,4.8,2.,4.8,,0,0.,4.8,8.,4.8
1979-07-27 21:13:22.330 ,7,1,,0,21.,4.8,0.,4.8,,0,0.,4.8,7.,4.8
1979-07-27 21:13:27.130 ,7,1,,0,0.,4.8,0.,4.8,,0,0.,4.8,0.,4.8
1979-07-27 21:13:31.930 ,7,1,,0,0.,4.8,0.,4.8,,0,0.,4.8,1.,4.8
1979-07-27 21:13:36.730 ,3,1,,0,0.,4.8,0.,4.8,,0,0.,4.8,5.,4.8
1979-07-27 21:13:41.530 ,3,1,,0,0.,4.8,0.,4.8,,0,0.,4.8,11.,4.8
1979-07-27 21:13:46.330 ,3,1,,0,6.,4.8,0.,4.8,,0,0.,4.8,13.,4.8
1979-07-27 21:13:51.130 ,3,1,,0,28.,4.8,4.,4.8,,0,0.,4.8,12.,4.8
1979-07-27 21:13:55.930 ,3,1,,0,29.,4.8,0.,4.8,,0,0.,4.8,11.,4.8
1979-07-27 21:14:00.730 ,0,1,,0,19.,4.8,1.,4.8,,0,0.,4.8,6.,4.8
1979-07-27 21:14:05.530 ,0,1,,0,15.,4.8,2.,4.8,,0,0.,4.8,6.,4.8
1979-07-27 21:14:10.330 ,0,1,,0,6.,4.8,1.,4.8,,0,0.,4.8,0.,4.8
1979-07-27 21:14:15.130 ,0,1,,0,0.,4.8,0.,4.8,,0,0.,4.8,3.,4.8
1979-07-27 21:14:19.930 ,0,1,,0,0.,4.8,0.,4.8,,0,0.,4.8,3.,4.8
1979-07-27 21:14:24.730 ,4,1,,0,0.,4.8,0.,4.8,,0,0.,4.8,1.,4.8
1979-07-27 21:14:29.530 ,4,1,,0,0.,4.8,0.,4.8,,0,0.,4.8,3.,4.8
1979-07-27 21:14:34.330 ,4,1,,0,6.,4.8,0.,4.8,,0,0.,4.8,3.,4.8
1979-07-27 21:14:39.130 ,4,1,,0,33.,4.8,2.,4.8,,0,0.,4.8,7.,4.8
1979-07-27 21:14:43.930 ,4,1,,0,28.,4.8,2.,4.8,,0,0.,4.8,8.,4.8
1979-07-27 21:14:48.730 ,7,1,,0,22.,4.8,1.,4.8,,0,0.,4.8,10.,4.8
1979-07-27 21:14:53.530 ,7,1,,0,19.,4.8,2.,4.8,,0,0.,4.8,10.,4.8
1979-07-27 21:14:58.330 ,7,1,,0,18.,4.8,0.,4.8,,0,0.,4.8,11.,4.8
1979-07-27 21:15:03.130 ,7,1,,0,0.,4.8,0.,4.8,,0,0.,4.8,0.,4.8
1979-07-27 21:15:07.930 ,7,1,,0,0.,4.8,0.,4.8,,0,0.,4.8,0.,4.8
1979-07-27 21:15:12.730 ,3,1,,0,0.,4.8,0.,4.8,,0,0.,4.8,5.,4.8
1979-07-27 21:15:17.530 ,3,1,,0,0.,4.8,0.,4.8,,0,0.,4.8,7.,4.8
1979-07-27 21:15:22.330 ,3,1,,0,3.,4.8,0.,4.8,,0,0.,4.8,5.,4.8
1979-07-27 21:15:27.130 ,3,1,,0,31.,4.8,4.,4.8,,0,0.,4.8,13.,4.8
1979-07-27 21:15:31.930 ,3,1,,0,23.,4.8,2.,4.8,,0,0.,4.8,10.,4.8
1979-07-27 21:15:36.730 ,0,1,,0,19.,4.8,5.,4.8,,0,0.,4.8,9.,4.8
1979-07-27 21:15:41.530 ,0,1,,0,10.,4.8,1.,4.8,,0,0.,4.8,3.,4.8
1979-07-27 21:15:46.330 ,0,1,,0,7.,4.8,2.,4.8,,0,0.,4.8,9.,4.8
1979-07-27 21:15:51.130 ,0,1,,0,0.,4.8,0.,4.8,,0,0.,4.8,6.,4.8
1979-07-27 21:15:55.930 ,0,1,,0,0.,4.8,0.,4.8,,0,0.,4.8,2.,4.8
1979-07-27 21:16:00.730 ,4,1,,0,0.,4.8,0.,4.8,,0,0.,4.8,5.,4.8
1979-07-27 21:16:05.530 ,4,1,,0,0.,4.8,0.,4.8,,0,0.,4.8,10.,4.8
1979-07-27 21:16:10.330 ,4,1,,0,4.,4.8,0.,4.8,,0,0.,4.8,3.,4.8
1979-07-27 21:16:15.130 ,4,1,,0,14.,4.8,0.,4.8,,0,0.,4.8,14.,4.8
1979-07-27 21:16:19.930 ,4,1,,0,24.,4.8,0.,4.8,,0,0.,4.8,13.,4.8
1979-07-27 21:16:24.730 ,7,1,,0,28.,4.8,4.,4.8,,0,0.,4.8,8.,4.8
1979-07-27 21:16:29.530 ,7,1,,0,33.,4.8,2.,4.8,,0,0.,4.8,15.,4.8
1979-07-27 21:16:34.330 ,7,1,,0,22.,4.8,0.,4.8,,0,0.,4.8,5.,4.8
1979-07-27 21:16:39.130 ,7,1,,0,0.,4.8,0.,4.8,,0,0.,4.8,0.,4.8
1979-07-27 21:16:43.930 ,7,1,,0,0.,4.8,0.,4.8,,0,0.,4.8,0.,4.8
1979-07-27 21:16:48.730 ,3,1,,0,0.,4.8,0.,4.8,,0,0.,4.8,7.,4.8
1979-07-27 21:16:53.530 ,3,1,,0,0.,4.8,0.,4.8,,0,0.,4.8,3.,4.8
1979-07-27 21:16:58.330 ,3,1,,0,4.,4.8,1.,4.8,,0,0.,4.8,10.,4.8
1979-07-27 21:17:03.130 ,3,1,,0,31.,4.8,3.,4.8,,0,0.,4.8,10.,4.8
1979-07-27 21:17:07.930 ,3,1,,0,32.,4.8,4.,4.8,,0,0.,4.8,5.,4.8
1979-07-27 21:17:12.730 ,0,1,,0,18.,4.8,1.,4.8,,0,0.,4.8,12.,4.8
1979-07-27 21:17:17.530 ,0,1,,0,10.,4.8,0.,4.8,,0,0.,4.8,2.,4.8
1979-07-27 21:17:22.330 ,0,1,,0,11.,4.8,0.,4.8,,0,0.,4.8,3.,4.8
1979-07-27 21:17:27.130 ,0,1,,0,0.,4.8,0.,4.8,,0,0.,4.8,4.,4.8
1979-07-27 21:17:31.930 ,0,1,,0,0.,4.8,0.,4.8,,0,0.,4.8,4.,4.8
1979-07-27 21:17:36.730 ,0,0,,0,0.,4.8,0.,4.8,,0,0.,4.8,3.,4.8
1979-07-27 21:17:41.530 ,0,0,,0,0.,4.8,0.,4.8,,0,0.,4.8,7.,4.8
1979-07-27 21:17:46.330 ,0,0,,0,3.,4.8,0.,4.8,,0,0.,4.8,9.,4.8
1979-07-27 21:17:51.130 ,0,0,,0,27.,4.8,0.,4.8,,0,0.,4.8,15.,4.8
1979-07-27 21:17:55.930 ,0,0,,0,26.,4.8,3.,4.8,,0,0.,4.8,14.,4.8
1979-07-27 21:18:00.730 ,0,0,,0,21.,4.8,0.,4.8,,0,0.,4.8,12.,4.8
1979-07-27 21:18:05.530 ,0,0,,0,24.,4.8,1.,4.8,,0,0.,4.8,9.,4.8
1979-07-27 21:18:10.330 ,0,0,,0,12.,4.8,1.,4.8,,0,0.,4.8,4.,4.8
1979-07-27 21:18:15.130 ,0,0,,0,0.,4.8,0.,4.8,,0,0.,4.8,0.,4.8
1979-07-27 21:18:19.930 ,0,0,,0,0.,4.8,0.,4.8,,0,0.,4.8,0.,4.8
1979-07-27 21:18:24.730 ,5,0,,0,0.,4.8,0.,4.8,,0,0.,4.8,7.,4.8
1979-07-27 21:18:29.530 ,5,0,,0,0.,4.8,0.,4.8,,0,0.,4.8,10.,4.8
1979-07-27 21:18:34.330 ,5,0,,0,5.,4.8,0.,4.8,,0,0.,4.8,6.,4.8
1979-07-27 21:18:39.130 ,5,0,,0,30.,4.8,2.,4.8,,0,0.,4.8,11.,4.8
1979-07-27 21:18:43.930 ,5,0,,0,28.,4.8,4.,4.8,,0,0.,4.8,7.,4.8
1979-07-27 21:18:48.730 ,5,0,,0,17.,4.8,1.,4.8,,0,0.,4.8,9.,4.8
1979-07-27 21:18:53.530 ,5,0,,0,27.,4.8,2.,4.8,,0,0.,4.8,6.,4.8
1979-07-27 21:18:58.330 ,5,0,,0,21.,4.8,2.,4.8,,0,0.,4.8,10.,4.8
1979-07-27 21:19:03.130 ,5,0,,0,0.,4.8,0.,4.8,,0,0.,4.8,9.,4.8
1979-07-27 21:19:07.930 ,5,0,,0,1.,4.8,0.,4.8,,0,0.,4.8,9.,4.8
1979-07-27 21:19:12.730 ,4,0,,0,0.,4.8,0.,4.8,,0,0.,4.8,15.,4.8
1979-07-27 21:19:17.530 ,4,0,,0,0.,4.8,0.,4.8,,0,0.,4.8,14.,4.8
1979-07-27 21:19:22.330 ,4,0,,0,4.,4.8,1.,4.8,,0,0.,4.8,14.,4.8
1979-07-27 21:19:27.130 ,4,0,,0,26.,4.8,1.,4.8,,0,0.,4.8,11.,4.8
1979-07-27 21:19:31.930 ,4,0,,0,22.,4.8,4.,4.8,,0,0.,4.8,12.,4.8
1979-07-27 21:19:36.730 ,4,0,,0,23.,4.8,0.,4.8,,0,0.,4.8,8.,4.8
1979-07-27 21:19:41.530 ,4,0,,0,20.,4.8,1.,4.8,,0,0.,4.8,7.,4.8
1979-07-27 21:19:46.330 ,4,0,,0,19.,4.8,1.,4.8,,0,0.,4.8,11.,4.8
1979-07-27 21:19:51.130 ,4,0,,0,0.,4.8,0.,4.8,,0,0.,4.8,9.,4.8
1979-07-27 21:19:55.930 ,4,0,,0,0.,4.8,0.,4.8,,0,1.,4.8,10.,4.8
1979-07-27 21:20:00.730 ,3,0,,0,0.,4.8,0.,4.8,,0,0.,4.8,7.,4.8
1979-07-27 21:20:05.530 ,3,0,,0,0.,4.8,0.,4.8,,0,0.,4.8,12.,4.8
1979-07-27 21:20:10.330 ,3,0,,0,3.,4.8,0.,4.8,,0,0.,4.8,10.,4.8
1979-07-27 21:20:15.130 ,3,0,,0,27.,4.8,1.,4.8,,0,0.,4.8,11.,4.8
1979-07-27 21:20:19.930 ,3,0,,0,22.,4.8,0.,4.8,,0,0.,4.8,13.,4.8
1979-07-27 21:20:24.730 ,3,0,,0,21.,4.8,1.,4.8,,0,0.,4.8,13.,4.8
1979-07-27 21:20:29.530 ,3,0,,0,34.,4.8,3.,4.8,,0,0.,4.8,9.,4.8
1979-07-27 21:20:34.330 ,3,0,,0,19.,4.8,3.,4.8,,0,0.,4.8,12.,4.8
1979-07-27 21:20:39.130 ,3,0,,0,0.,4.8,0.,4.8,,0,0.,4.8,4.,4.8
1979-07-27 21:20:43.930 ,3,0,,0,0.,4.8,0.,4.8,,0,0.,4.8,13.,4.8
1979-07-27 21:20:48.730 ,2,0,,0,0.,4.8,0.,4.8,,0,0.,4.8,12.,4.8
1979-07-27 21:20:53.530 ,2,0,,0,0.,4.8,1.,4.8,,0,0.,4.8,10.,4.8
1979-07-27 21:20:58.330 ,2,0,,0,4.,4.8,0.,4.8,,0,0.,4.8,7.,4.8
1979-07-27 21:21:03.130 ,2,0,,0,20.,4.8,2.,4.8,,0,0.,4.8,5.,4.8
1979-07-27 21:21:07.930 ,2,0,,0,20.,4.8,2.,4.8,,0,0.,4.8,6.,4.8
1979-07-27 21:21:12.730 ,2,0,,0,9.,4.8,1.,4.8,,0,0.,4.8,7.,4.8
1979-07-27 21:21:17.530 ,2,0,,0,20.,4.8,3.,4.8,,0,0.,4.8,5.,4.8
1979-07-27 21:21:22.330 ,2,0,,0,11.,4.8,0.,4.8,,0,0.,4.8,6.,4.8
1979-07-27 21:21:27.130 ,2,0,,0,0.,4.8,0.,4.8,,0,0.,4.8,6.,4.8
1979-07-27 21:21:31.930 ,2,0,,0,0.,4.8,0.,4.8,,0,0.,4.8,3.,4.8
1979-07-27 21:21:36.730 ,1,0,,0,0.,4.8,0.,4.8,,0,0.,4.8,8.,4.8
1979-07-27 21:21:41.530 ,1,0,,0,0.,4.8,0.,4.8,,0,0.,4.8,5.,4.8
1979-07-27 21:21:46.330 ,1,0,,0,1.,4.8,0.,4.8,,0,0.,4.8,3.,4.8
1979-07-27 21:21:51.130 ,1,0,,0,6.,4.8,1.,4.8,,0,0.,4.8,9.,4.8
1979-07-27 21:21:55.930 ,1,0,,0,3.,4.8,1.,4.8,,0,0.,4.8,7.,4.8
1979-07-27 21:22:00.730 ,1,0,,0,16.,4.8,2.,4.8,,0,0.,4.8,2.,4.8
1979-07-27 21:22:05.530 ,1,0,,0,10.,4.8,1.,4.8,,0,0.,4.8,9.,4.8
1979-07-27 21:22:10.330 ,1,0,,0,6.,4.8,0.,4.8,,0,0.,4.8,3.,4.8
1979-07-27 21:22:15.130 ,1,0,,0,0.,4.8,0.,4.8,,0,0.,4.8,3.,4.8
1979-07-27 21:22:19.930 ,1,0,,0,0.,4.8,0.,4.8,,0,0.,4.8,4.,4.8
1979-07-27 21:22:24.730 ,0,0,,0,0.,4.8,0.,4.8,,0,0.,4.8,6.,4.8
1979-07-27 21:22:29.530 ,0,0,,0,0.,4.8,0.,4.8,,0,0.,4.8,4.,4.8
1979-07-27 21:22:34.330 ,0,0,,0,2.,4.8,0.,4.8,,0,0.,4.8,5.,4.8
1979-07-27 21:22:39.130 ,0,0,,0,5.,4.8,2.,4.8,,0,0.,4.8,1.,4.8
1979-07-27 21:22:43.930 ,0,0,,0,2.,4.8,0.,4.8,,0,0.,4.8,1.,4.8
1979-07-27 21:22:48.730 ,0,0,,0,6.,4.8,0.,4.8,,0,0.,4.8,8.,4.8
1979-07-27 21:22:53.530 ,0,0,,0,11.,4.8,1.,4.8,,0,0.,4.8,4.,4.8
1979-07-27 21:22:58.330 ,0,0,,0,6.,4.8,0.,4.8,,0,0.,4.8,4.,4.8
1979-07-27 21:23:03.130 ,0,0,,0,0.,4.8,0.,4.8,,0,0.,4.8,2.,4.8
1979-07-27 21:23:07.930 ,0,0,,0,0.,4.8,0.,4.8,,0,0.,4.8,5.,4.8
1979-07-27 21:23:12.730 ,0,0,,0,0.,4.8,0.,4.8,,0,0.,4.8,7.,4.8
1979-07-27 21:23:17.530 ,0,0,,0,1.,4.8,0.,4.8,,0,0.,4.8,5.,4.8
1979-07-27 21:23:22.330 ,0,0,,0,1.,4.8,0.,4.8,,0,0.,4.8,4.,4.8
1979-07-27 21:23:27.130 ,0,0,,0,5.,4.8,1.,4.8,,0,0.,4.8,6.,4.8
1979-07-27 21:23:31.930 ,0,0,,0,4.,4.8,0.,4.8,,0,0.,4.8,5.,4.8
1979-07-27 21:23:36.730 ,0,0,,0,6.,4.8,2.,4.8,,0,0.,4.8,5.,4.8
1979-07-27 21:23:41.530 ,0,0,,0,5.,4.8,1.,4.8,,0,0.,4.8,3.,4.8
1979-07-27 21:23:46.330 ,0,0,,0,5.,4.8,0.,4.8,,0,0.,4.8,4.,4.8
1979-07-27 21:23:51.130 ,0,0,,0,0.,4.8,0.,4.8,,0,0.,4.8,5.,4.8
1979-07-27 21:23:55.930 ,0,0,,0,0.,4.8,0.,4.8,,0,0.,4.8,4.,4.8
1979-07-27 21:24:00.730 ,1,0,,0,0.,4.8,0.,4.8,,0,0.,4.8,2.,4.8
1979-07-27 21:24:05.530 ,1,0,,0,0.,4.8,0.,4.8,,0,0.,4.8,7.,4.8
1979-07-27 21:24:10.330 ,1,0,,0,3.,4.8,1.,4.8,,0,0.,4.8,1.,4.8
1979-07-27 21:24:15.130 ,1,0,,0,13.,4.8,5.,4.8,,0,0.,4.8,6.,4.8
1979-07-27 21:24:19.930 ,1,0,,0,14.,4.8,2.,4.8,,0,0.,4.8,5.,4.8
1979-07-27 21:24:24.730 ,1,0,,0,15.,4.8,2.,4.8,,0,0.,4.8,2.,4.8
1979-07-27 21:24:29.530 ,1,0,,0,13.,4.8,1.,4.8,,0,0.,4.8,4.,4.8
1979-07-27 21:24:34.330 ,1,0,,0,8.,4.8,1.,4.8,,0,0.,4.8,4.,4.8
1979-07-27 21:24:39.130 ,1,0,,0,0.,4.8,0.,4.8,,0,0.,4.8,6.,4.8
1979-07-27 21:24:43.930 ,1,0,,0,0.,4.8,0.,4.8,,0,0.,4.8,8.,4.8
1979-07-27 21:24:48.730 ,2,0,,0,0.,4.8,0.,4.8,,0,0.,4.8,6.,4.8
1979-07-27 21:24:53.530 ,2,0,,0,0.,4.8,0.,4.8,,0,0.,4.8,6.,4.8
1979-07-27 21:24:58.330 ,2,0,,0,1.,4.8,0.,4.8,,0,0.,4.8,5.,4.8
1979-07-27 21:25:03.130 ,2,0,,0,19.,4.8,3.,4.8,,0,0.,4.8,6.,4.8
1979-07-27 21:25:07.930 ,2,0,,0,21.,4.8,2.,4.8,,0,0.,4.8,3.,4.8
1979-07-27 21:25:12.730 ,2,0,,0,20.,4.8,1.,4.8,,0,0.,4.8,12.,4.8
1979-07-27 21:25:17.530 ,2,0,,0,13.,4.8,0.,4.8,,0,0.,4.8,6.,4.8
1979-07-27 21:25:22.330 ,2,0,,0,16.,4.8,2.,4.8,,0,0.,4.8,4.,4.8
1979-07-27 21:25:27.130 ,2,0,,0,0.,4.8,0.,4.8,,0,0.,4.8,6.,4.8
1979-07-27 21:25:31.930 ,2,0,,0,0.,4.8,0.,4.8,,0,0.,4.8,7.,4.8
1979-07-27 21:25:36.730 ,3,0,,0,0.,4.8,0.,4.8,,0,0.,4.8,5.,4.8
1979-07-27 21:25:41.530 ,3,0,,0,0.,4.8,0.,4.8,,0,0.,4.8,9.,4.8
1979-07-27 21:25:46.330 ,3,0,,0,4.,4.8,0.,4.8,,0,0.,4.8,15.,4.8
1979-07-27 21:25:51.130 ,3,0,,0,28.,4.8,1.,4.8,,0,0.,4.8,11.,4.8
1979-07-27 21:25:55.930 ,3,0,,0,33.,4.8,2.,4.8,,0,0.,4.8,8.,4.8
1979-07-27 21:26:00.730 ,3,0,,0,23.,4.8,1.,4.8,,0,0.,4.8,21.,4.8
1979-07-27 21:26:05.530 ,3,0,,0,30.,4.8,0.,4.8,,0,0.,4.8,11.,4.8
1979-07-27 21:26:10.330 ,3,0,,0,19.,4.8,2.,4.8,,0,0.,4.8,17.,4.8
1979-07-27 21:26:15.130 ,3,0,,0,0.,4.8,0.,4.8,,0,0.,4.8,9.,4.8
1979-07-27 21:26:19.930 ,3,0,,0,0.,4.8,0.,4.8,,0,0.,4.8,12.,4.8
1979-07-27 21:26:24.730 ,4,0,,0,0.,4.8,0.,4.8,,0,0.,4.8,11.,4.8
1979-07-27 21:26:29.530 ,4,0,,0,0.,4.8,0.,4.8,,0,0.,4.8,9.,4.8
1979-07-27 21:26:34.330 ,4,0,,0,2.,4.8,0.,4.8,,0,0.,4.8,9.,4.8
1979-07-27 21:26:39.130 ,4,0,,0,30.,4.8,3.,4.8,,0,1.,4.8,11.,4.8
1979-07-27 21:26:43.930 ,4,0,,0,16.,4.8,0.,4.8,,0,0.,4.8,15.,4.8
1979-07-27 21:26:48.730 ,4,0,,0,29.,4.8,3.,4.8,,0,0.,4.8,14.,4.8
1979-07-27 21:26:53.530 ,4,0,,0,22.,4.8,0.,4.8,,0,0.,4.8,8.,4.8
1979-07-27 21:26:58.330 ,4,0,,0,23.,4.8,1.,4.8,,0,0.,4.8,8.,4.8
1979-07-27 21:27:03.130 ,4,0,,0,0.,4.8,0.,4.8,,0,0.,4.8,8.,4.8
1979-07-27 21:27:07.930 ,4,0,,0,0.,4.8,0.,4.8,,0,0.,4.8,24.,4.8
1979-07-27 21:27:12.730 ,5,0,,0,0.,4.8,0.,4.8,,0,0.,4.8,8.,4.8
1979-07-27 21:27:17.530 ,5,0,,0,0.,4.8,0.,4.8,,0,0.,4.8,6.,4.8
1979-07-27 21:27:22.330 ,5,0,,0,5.,4.8,1.,4.8,,0,0.,4.8,7.,4.8
1979-07-27 21:27:27.130 ,5,0,,0,25.,4.8,1.,4.8,,0,0.,4.8,16.,4.8
1979-07-27 21:27:31.930 ,5,0,,0,23.,4.8,2.,4.8,,0,0.,4.8,8.,4.8
1979-07-27 21:27:36.730 ,5,0,,0,24.,4.8,1.,4.8,,0,0.,4.8,12.,4.8
1979-07-27 21:27:41.530 ,5,0,,0,14.,4.8,2.,4.8,,0,0.,4.8,5.,4.8
1979-07-27 21:27:46.330 ,5,0,,0,18.,4.8,2.,4.8,,0,0.,4.8,6.,4.8
1979-07-27 21:27:51.130 ,5,0,,0,0.,4.8,0.,4.8,,0,0.,4.8,10.,4.8
1979-07-27 21:27:55.930 ,5,0,,0,0.,4.8,0.,4.8,,0,0.,4.8,10.,4.8
1979-07-27 21:28:00.730 ,6,0,,0,0.,4.8,0.,4.8,,0,0.,4.8,12.,4.8
1979-07-27 21:28:05.530 ,6,0,,0,0.,4.8,0.,4.8,,0,0.,4.8,12.,4.8
1979-07-27 21:28:10.330 ,6,0,,0,2.,4.8,0.,4.8,,0,0.,4.8,10.,4.8
1979-07-27 21:28:15.130 ,6,0,,0,16.,4.8,1.,4.8,,0,0.,4.8,7.,4.8
1979-07-27 21:28:19.930 ,6,0,,0,11.,4.8,1.,4.8,,0,0.,4.8,9.,4.8
1979-07-27 21:28:24.730 ,6,0,,0,15.,4.8,0.,4.8,,0,0.,4.8,8.,4.8
1979-07-27 21:28:29.530 ,6,0,,0,12.,4.8,1.,4.8,,0,0.,4.8,11.,4.8
1979-07-27 21:28:34.330 ,6,0,,0,14.,4.8,1.,4.8,,0,0.,4.8,5.,4.8
1979-07-27 21:28:39.130 ,6,0,,0,0.,4.8,0.,4.8,,0,0.,4.8,4.,4.8
1979-07-27 21:28:43.930 ,6,0,,0,0.,4.8,0.,4.8,,0,0.,4.8,5.,4.8
1979-07-27 21:28:48.730 ,7,0,,0,0.,4.8,0.,4.8,,0,0.,4.8,3.,4.8
1979-07-27 21:28:53.530 ,7,0,,0,0.,4.8,0.,4.8,,0,0.,4.8,5.,4.8
1979-07-27 21:28:58.330 ,7,0,,0,2.,4.8,0.,4.8,,0,0.,4.8,0.,4.8
1979-07-27 21:29:03.130 ,7,0,,0,12.,4.8,0.,4.8,,0,0.,4.8,0.,4.8
1979-07-27 21:29:07.930 ,7,0,,0,12.,4.8,0.,4.8,,0,0.,4.8,0.,4.8
1979-07-27 21:29:12.730 ,7,0,,0,6.,4.8,0.,4.8,,0,0.,4.8,0.,4.8
1979-07-27 21:29:17.530 ,7,0,,0,10.,4.8,0.,4.8,,0,1.,4.8,0.,4.8
1979-07-27 21:29:22.330 ,7,0,,0,15.,4.8,0.,4.8,,0,0.,4.8,0.,4.8
1979-07-27 21:29:27.130 ,7,0,,0,0.,4.8,0.,4.8,,0,0.,4.8,0.,4.8
1979-07-27 21:29:31.930 ,7,0,,0,0.,4.8,0.,4.8,,0,0.,4.8,0.,4.8
1979-07-27 21:29:36.730 ,7,0,,0,0.,4.8,0.,4.8,,0,0.,4.8,1.,4.8
1979-07-27 21:29:41.530 ,7,0,,0,0.,4.8,0.,4.8,,0,0.,4.8,0.,4.8
1979-07-27 21:29:46.330 ,7,0,,0,1.,4.8,0.,4.8,,0,0.,4.8,0.,4.8
1979-07-27 21:29:51.130 ,7,0,,0,17.,4.8,0.,4.8,,0,0.,4.8,0.,4.8